#timestamp,LO_Frequency,Hit,StdDev 
1651788015.1,286047003.8,N
1651788016.0,286047003.8,N
1651788035.8,286047003.3,N
1651788055.6,286047003.0,N
1651788075.5,286047006.0,Y
1651788095.3,286047003.1,P
1651788115.2,286047004.2,P
1651788135.9,286047003.9,P
1651788155.7,286047001.5,N
1651788175.6,286047004.4,Y
1651788195.4,286047000.7,P
1651788215.3,286047000.8,N
1651788235.1,286047000.7,N
1651788255.8,286047000.9,N
1651788275.7,286047000.4,N
1651788295.5,286047002.7,Y
1651788315.4,286047001.1,P
1651788335.2,286047001.2,P
1651788355.0,286047001.2,P
1651788355.9,286047001.2,Y
1651788375.8,286046999.3,P
1651788395.6,286046998.9,N
1651788415.5,286047001.1,N
1651788435.3,286046998.6,N
1651788455.1,286047000.5,N
1651788475.9,286046998.3,N
1651788495.7,286047002.8,N
1651788515.5,286046999.7,N
1651788535.4,286047002.2,N
1651788585.2,286047001.5,E
1651788595.2,286047002.7,N
1651788615.0,286047000.8,P
1651788615.9,286047000.8,N
1651788635.7,286047001.1,N
1651788655.6,286047000.0,N
1651788675.4,286047000.0,N
1651788695.3,286047000.1,N
1651788715.1,286047000.2,N
1651788735.8,286047000.5,N
1651788755.7,286046998.5,N
1651788775.5,286046998.8,N
1651788795.4,286046998.9,N
1651788815.2,286046999.3,N
1651788835.0,286046999.0,N
1651788835.9,286046999.0,N
1651788855.8,286046996.5,Y
1651788875.6,286046999.1,P
1651788895.4,286046998.6,P
1651788915.3,286046998.1,P
1651788935.1,286047001.2,N
1651788955.9,286046998.1,N
1651788975.7,286047001.1,N
1651788995.5,286046998.5,N
1651789015.4,286046998.3,N
1651789035.2,286046998.4,N
1651789055.0,286047001.1,N
1651789055.9,286047001.1,N
1651789075.8,286046998.4,N
1651789095.6,286046998.4,N
1651789115.5,286046998.5,N
1651789135.3,286046998.4,N
1651789155.1,286046998.5,N
1651789175.9,286047000.8,N
1651789195.7,286047001.0,N
1651789215.5,286046998.4,N
1651789235.4,286046998.8,N
1651789255.2,286047000.5,N
1651789275.1,286047001.0,N
1651789276.0,286047001.0,N
1651789295.8,286047000.0,N
1651789315.6,286047000.1,N
1651789335.5,286046999.9,N
1651789355.3,286047002.4,N
1651789375.1,286047002.2,N
1651789395.9,286047002.3,N
1651789415.7,286047004.0,N
1651789435.6,286047001.9,N
1651789455.4,286047002.1,N
1651789475.2,286047001.6,N
1651789495.1,286047002.5,N
1651789496.0,286047002.5,N
1651789515.8,286047002.4,N
1651789535.6,286047001.9,N
1651789555.5,286047004.3,N
1651789575.3,286047003.5,N
1651789595.2,286047001.5,N
1651789615.0,286047004.2,N
1651789615.9,286047004.2,N
1651789635.7,286047003.8,N
1651789655.6,286047003.7,N
1651789675.4,286047003.3,N
1651789695.3,286047004.3,N
1651789715.1,286047004.0,N
1651789716.0,286047004.0,N
1651789735.8,286047005.8,Y
1651789755.7,286046999.8,P
1651789775.5,286047002.4,N
1651789795.3,286047002.4,N
1651789815.2,286047000.3,N
1651789835.0,286046999.9,N
1651789835.9,286046999.9,N
1651789855.8,286046999.7,N
1651789875.6,286046999.7,N
1651789895.4,286047001.9,N
1651789915.3,286047001.6,N
1651789935.1,286047002.6,N
1651789955.9,286047000.2,N
1651789975.7,286046999.8,N
1651789995.5,286047000.1,N
1651790015.4,286047000.5,N
1651790035.2,286047000.8,N
1651790055.0,286046999.9,N
1651790056.0,286046999.9,N
1651790075.8,286047001.1,N
1651790095.6,286047000.3,N
1651790115.5,286047001.0,N
1651790135.3,286047001.1,N
1651790155.1,286047001.2,N
1651790175.9,286046998.8,N
1651790195.7,286046998.7,N
1651790215.5,286046998.8,N
1651790235.4,286047001.1,N
1651790255.2,286047001.0,N
1651790275.1,286047001.2,N
1651790276.0,286047001.2,N
1651790295.8,286047000.7,N
1651790315.6,286046998.2,N
1651790335.5,286047000.7,N
1651790355.3,286046998.9,N
1651790375.1,286046998.8,N
1651790395.9,286046999.0,N
1651790415.7,286046998.4,N
1651790435.6,286047001.1,N
1651790455.4,286047002.7,N
1651790475.2,286047002.8,N
1651790495.1,286047000.8,N
1651790496.0,286047000.8,N
1651790515.8,286046998.1,N
1651790535.7,286046998.1,N
1651790555.5,286047000.2,N
1651790575.3,286047000.6,N
1651790595.2,286047000.8,N
1651790615.0,286046998.4,N
1651790615.9,286046998.4,N
1651790635.8,286046998.2,N
1651790655.6,286046998.5,N
1651790675.4,286047001.1,N
1651790695.3,286047000.9,N
1651790715.1,286046999.8,N
1651790735.9,286047000.1,N
1651790755.7,286047000.5,N
1651790775.5,286047000.2,N
1651790795.4,286046999.9,N
1651790815.2,286047000.9,N
1651790835.1,286047000.0,N
1651790836.0,286047000.0,N
1651790855.8,286047000.5,N
1651790875.6,286047000.7,N
1651790895.5,286047000.4,N
1651790915.3,286047000.0,N
1651790935.1,286047001.2,N
1651790955.9,286047000.4,N
1651790975.7,286047001.0,N
1651790995.6,286047002.8,N
1651791015.4,286047001.0,N
1651791035.2,286047001.2,N
1651791055.1,286047000.3,N
1651791056.0,286047000.3,N
1651791075.8,286046999.8,N
1651791095.7,286047002.6,N
1651791115.5,286046999.8,N
1651791135.3,286047000.3,N
1651791155.2,286047000.5,N
1651791175.9,286047000.4,N
1651791195.8,286047002.7,N
1651791215.6,286046999.7,N
1651791235.4,286047000.1,N
1651791255.3,286047001.0,N
1651791275.1,286046999.8,N
1651791295.8,286047002.6,Y
1651791315.7,286047001.0,P
1651791335.5,286047001.2,P
1651791385.4,286047002.4,E
1651791395.3,286046998.6,N
1651791415.2,286046996.8,P
1651791435.9,286046996.8,P
1651791455.7,286046996.8,Y
1651791475.6,286047000.6,P
1651791495.4,286047002.8,N
1651791515.2,286047002.2,N
1651791535.1,286047001.6,N
1651791536.0,286047001.6,N
1651791555.8,286047002.5,N
1651791575.7,286046999.8,N
1651791595.5,286046999.7,N
